Overview Statistics Trail Chart Weather Telemetry Raw packets
 

This is the latest recevied weather packets stored in our database for station/object KG5MMT-12. If no packets are shown the sender has not sent any weather packets the latest 10 day(s).

<< 82 83 84 85 86 87 88 >>
Time Temp. Humidity Pressure Rain* Wind** Luminosity Snow
1788095653 15.56° C 80% 0 hPa 0 mm - - -
1788095353 15.56° C 77% 0 hPa 0 mm - - -
1788095053 16.11° C 78% 0 hPa 0 mm - - -
1788094753 16.11° C 77% 0 hPa 0 mm - - -
1788094453 16.11° C 76% 0 hPa 0 mm - - -
1788094153 16.11° C 76% 0 hPa 0 mm - - -
1788093853 16.11° C 73% 0 hPa 0 mm - - -
1788093553 16.67° C 74% 0 hPa 0 mm - - -
1788093253 16.67° C 74% 0 hPa 0 mm - - -
1788092953 16.67° C 74% 0 hPa 0 mm - - -
1788092653 16.67° C 71% 0 hPa 0 mm - - -
1788092353 16.11° C 73% 0 hPa 0 mm - - -
1788092053 15.56° C 77% 0 hPa 0 mm - - -
1788091753 15° C 79% 0 hPa 0 mm - - -
1788091453 15° C 80% 0 hPa 0 mm - - -
1788091153 15° C 82% 0 hPa 0 mm - - -
1788090853 14.44° C 83% 0 hPa 0 mm - - -
1788090553 14.44° C 84% 0 hPa 0 mm - - -
1788090253 14.44° C 83% 0 hPa 0 mm - - -
1788089953 14.44° C 83% 0 hPa 0 mm - - -
1788089653 14.44° C 83% 0 hPa 0 mm - - -
1788089353 14.44° C 83% 0 hPa 0 mm - - -
1788089053 14.44° C 83% 0 hPa 0 mm - - -
1788088753 13.89° C 84% 0 hPa 0 mm - - -
1788088453 13.89° C 85% 0 hPa 0 mm - - -

* Rain latest hour (hover to see other rain measurements)
** Current wind speed in m/s (hover to see current wind gust speed)